Peru, IL

9:58 AM CST on December 16, 2017 (GMT -0600)
Illinois Valley Regional-Duncan

Weather History for KVYS - January, 2012

Change the Weather History Date:

Tuesday, January 17, 2012

  Actual Average Record
Temperature  
Mean Temperature 32 °F -  
Max Temperature 41 °F 30 °F 57 °F (1990)
Min Temperature 23 °F 12 °F -19 °F (1982)
Degree Days  
Heating Degree Days 32    
Moisture  
Dew Point 32 °F    
Average Humidity 89    
Maximum Humidity 100    
Minimum Humidity 79    
Precipitation  
Precipitation 0.10 in - - ()
Sea Level Pressure  
Sea Level Pressure 29.79 in    
Wind  
Wind Speed 13 mph (NNW)    
Max Wind Speed 29 mph    
Max Gust Speed 34 mph    
Visibility 4 miles    
Events Rain , Snow    
Averages and records for this station are not official NWS values.
T = Trace of Precipitation, MM = Missing Value Source: NWS Daily Summary

Daily Weather History Graph

Daily Weather History Graph

Search for Another Location

Airport or City:

Trip Planner

Search our weather history database for the weather conditions in past years. The results will help you decide how hot, cold, wet, or windy it might be!

Date:

Astronomy

Jan. 17, 2012 Rise Set
Actual Time 7:19 AM CST 4:53 PM CST
Civil Twilight 6:49 AM CST 5:24 PM CST
Nautical Twilight 6:15 AM CST 5:58 PM CST
Astronomical Twilight 5:42 AM CST 6:31 PM CST
Moon 1:38 AM CST (1/17) 11:47 AM CST (1/17)
Length of Visible Light 10h 35m
Length of Day
9h 34m
Waning Crescent, 35% of the Moon is Illuminated
Jan 17
Waning Crescent
Jan 23
New
Jan 30
First Quarter
Feb 7
Full
Feb 14
Last Quarter

Hourly Weather History & Observations

Time (CST) Temp. Windchill Dew Point Humidity Pressure Visibility Wind Dir Wind Speed Gust Speed Precip Events Conditions
12:15 AM 41.5 °F 37.1 °F 39.4 °F 92% 29.62 in 4.0 mi ENE 6.9 mph - N/A   Overcast
12:35 AM 41.0 °F 36.4 °F 39.2 °F 93% 29.61 in 4.0 mi NNE 6.9 mph - N/A   Overcast
12:55 AM 41.5 °F 36.4 °F 39.6 °F 93% 29.61 in 3.0 mi NE 8.1 mph - N/A   Overcast
1:15 AM 41.5 °F 35.9 °F 39.6 °F 93% 29.60 in 4.0 mi NE 9.2 mph - N/A   Overcast
1:35 AM 41.5 °F 37.8 °F 39.6 °F 93% 29.60 in 3.0 mi NNE 5.8 mph - N/A   Overcast
1:55 AM 41.5 °F 38.6 °F 39.4 °F 92% 29.61 in 4.0 mi NNW 4.6 mph - N/A   Overcast
2:15 AM 40.8 °F 36.2 °F 38.7 °F 92% 29.61 in 4.0 mi ENE 6.9 mph - N/A Rain Rain
2:35 AM 40.6 °F 38.6 °F 38.5 °F 92% 29.61 in 1.8 mi NNE 3.5 mph - 0.05 in Rain Heavy Rain
2:55 AM 40.3 °F 35.5 °F 38.3 °F 93% 29.58 in 2.5 mi NNE 6.9 mph - 0.08 in Rain Light Rain
3:15 AM 39.7 °F 33.2 °F 37.9 °F 93% 29.57 in 3.0 mi NNE 10.4 mph - N/A   Overcast
3:35 AM 39.6 °F 33.5 °F 37.8 °F 93% 29.58 in 3.0 mi NNE 9.2 mph - N/A   Overcast
3:55 AM 39.2 °F 31.6 °F 37.4 °F 93% 29.58 in 2.0 mi North 12.7 mph - N/A   Overcast
4:15 AM 38.7 °F 32.4 °F 36.9 °F 93% 29.59 in 1.5 mi North 9.2 mph - N/A Rain Light Rain
4:35 AM 38.3 °F 31.9 °F 36.7 °F 94% 29.59 in 1.2 mi North 9.2 mph - 0.01 in Rain Rain
4:55 AM 38.3 °F 31.4 °F 36.5 °F 93% 29.59 in 1.5 mi North 10.4 mph - 0.01 in   Overcast
5:15 AM 37.4 °F 31.4 °F 37.4 °F 100% 29.60 in 2.0 mi NNE 8.1 mph - N/A   Overcast
5:35 AM 37.4 °F 30.8 °F 37.4 °F 100% 29.59 in 2.5 mi NNE 9.2 mph - N/A   Overcast
5:55 AM 37.9 °F 30.9 °F 36.5 °F 95% 29.60 in 3.0 mi North 10.4 mph - N/A   Overcast
6:15 AM 37.6 °F 30.5 °F 36.0 °F 94% 29.62 in 2.5 mi NNW 10.4 mph - N/A   Overcast
6:35 AM 37.4 °F 31.4 °F 35.6 °F 93% 29.61 in 2.0 mi North 8.1 mph - N/A   Overcast
6:55 AM 36.9 °F 30.1 °F 35.2 °F 94% 29.63 in 1.5 mi NNW 9.2 mph - N/A   Overcast
7:15 AM 36.7 °F 28.4 °F 35.1 °F 94% 29.65 in 1.2 mi NW 12.7 mph 17.3 mph 0.01 in   Overcast
7:35 AM 36.5 °F 27.4 °F 35.1 °F 95% 29.67 in 1.2 mi NW 15.0 mph - 0.01 in   Overcast
7:55 AM 36.5 °F 27.0 °F 35.1 °F 95% 29.69 in 1.5 mi NW 16.1 mph 21.9 mph 0.01 in   Light Drizzle
8:15 AM 35.2 °F 24.7 °F 33.8 °F 94% 29.71 in 1.8 mi NW 18.4 mph - N/A   Overcast
8:35 AM 34.7 °F 23.4 °F 33.1 °F 94% 29.71 in 1.5 mi NW 20.7 mph - N/A   Light Drizzle
8:55 AM 34.5 °F 23.1 °F 32.9 °F 94% 29.72 in 2.0 mi NNW 20.7 mph 25.3 mph N/A   Light Drizzle
9:15 AM 34.2 °F 22.1 °F 32.2 °F 92% 29.75 in 2.5 mi NNW 23.0 mph 26.5 mph N/A Rain Light Rain
9:35 AM 34.0 °F 22.4 °F 32.0 °F 92% 29.77 in 2.0 mi NW 20.7 mph 26.5 mph N/A Snow Light Snow
9:55 AM 34.0 °F 23.8 °F 32.0 °F 92% 29.79 in 3.0 mi NNW 16.1 mph - N/A Snow Light Snow
10:15 AM 34.0 °F 23.0 °F 31.8 °F 92% 29.80 in 10.0 mi NW 18.4 mph 25.3 mph N/A   Overcast
10:35 AM 34.0 °F 23.0 °F 30.6 °F 87% 29.82 in 10.0 mi NNW 18.4 mph 26.5 mph N/A   Overcast
11:15 AM 33.8 °F 20.8 °F 30.6 °F 88% 29.86 in 10.0 mi WNW 26.5 mph 32.2 mph N/A   Overcast
11:35 AM 32.9 °F 20.7 °F 29.8 °F 88% 29.87 in 10.0 mi NW 21.9 mph 29.9 mph N/A   Overcast
11:55 AM 33.8 °F 21.9 °F 30.2 °F 87% 29.88 in 7.0 mi NW 21.9 mph - N/A   Overcast
12:15 PM 32.9 °F 20.1 °F 29.1 °F 86% 29.89 in 7.0 mi NW 24.2 mph - N/A   Overcast
12:35 PM 32.7 °F 20.1 °F 28.8 °F 85% 29.90 in 10.0 mi NW 23.0 mph 32.2 mph N/A   Overcast
12:55 PM 33.8 °F 21.3 °F 28.4 °F 81% 29.90 in 5.0 mi NW 24.2 mph 31.1 mph N/A Snow Light Snow
1:15 PM 32.0 °F 18.9 °F 28.2 °F 86% 29.91 in 3.0 mi NW 24.2 mph 27.6 mph N/A Snow Light Snow
1:35 PM 32.0 °F 19.2 °F 28.2 °F 86% 29.92 in 3.0 mi NW 23.0 mph 26.5 mph N/A Snow Light Snow
1:55 PM 32.0 °F 18.9 °F 27.7 °F 84% 29.94 in 7.0 mi NW 24.2 mph 28.8 mph N/A Snow Light Snow
2:15 PM 31.5 °F 18.5 °F 27.5 °F 85% 29.96 in 2.5 mi WNW 23.0 mph 29.9 mph N/A Snow Light Snow
2:35 PM 31.1 °F 18.9 °F 26.8 °F 84% 29.98 in 4.0 mi WNW 19.6 mph 27.6 mph N/A   Overcast
2:55 PM 30.6 °F 17.3 °F 26.2 °F 84% 29.99 in 10.0 mi WNW 23.0 mph 28.8 mph N/A   Overcast
3:15 PM 30.4 °F 18.0 °F 25.5 °F 82% 30.01 in 5.0 mi WNW 19.6 mph 28.8 mph N/A   Haze
3:35 PM 29.1 °F 16.4 °F 24.8 °F 84% 30.04 in 3.0 mi WNW 19.6 mph 27.6 mph N/A Snow Light Snow
3:55 PM 28.0 °F 12.5 °F 23.4 °F 83% 30.05 in 3.0 mi WNW 28.8 mph 34.5 mph N/A Snow Light Snow
4:15 PM 27.9 °F 14.4 °F 23.5 °F 84% 30.07 in 4.0 mi WNW 20.7 mph 27.6 mph N/A Snow Light Snow
4:35 PM 27.1 °F 13.1 °F 22.6 °F 83% 30.09 in 5.0 mi WNW 21.9 mph 28.8 mph N/A Snow Light Snow
4:55 PM 26.4 °F 11.2 °F 21.2 °F 81% 30.10 in 7.0 mi NW 25.3 mph 31.1 mph N/A Snow Light Snow
5:15 PM 25.7 °F 11.2 °F 20.1 °F 79% 30.12 in 10.0 mi WNW 21.9 mph 27.6 mph N/A   Scattered Clouds
5:35 PM 24.8 °F 11.5 °F 19.8 °F 81% 30.13 in 10.0 mi WNW 17.3 mph 24.2 mph N/A   Scattered Clouds
5:55 PM 24.4 °F 10.6 °F 19.0 °F 80% 30.14 in 10.0 mi WNW 18.4 mph 26.5 mph N/A   Scattered Clouds
6:15 PM 23.9 °F 9.5 °F 18.7 °F 80% 30.16 in 10.0 mi WNW 19.6 mph 26.5 mph N/A   Clear
6:35 PM 23.9 °F 11.7 °F 18.9 °F 81% 30.17 in 10.0 mi WNW 13.8 mph 19.6 mph N/A   Clear
6:55 PM 23.0 °F 10.6 °F 19.4 °F 86% 30.18 in 10.0 mi WNW 13.8 mph - N/A   Scattered Clouds
7:15 PM 22.8 °F 10.4 °F 17.6 °F 80% 30.20 in 10.0 mi WNW 13.8 mph 21.9 mph N/A   Scattered Clouds
7:35 PM 22.1 °F 9.5 °F 17.1 °F 81% 30.21 in 10.0 mi WNW 13.8 mph - N/A   Clear
7:55 PM 21.7 °F 9.0 °F 16.3 °F 80% 30.23 in 10.0 mi WNW 13.8 mph 21.9 mph N/A   Clear
8:15 PM 21.4 °F 7.5 °F 15.6 °F 78% 30.23 in 10.0 mi WNW 16.1 mph - N/A   Clear
8:35 PM 20.3 °F 5.7 °F 14.7 °F 79% 30.23 in 10.0 mi WNW 17.3 mph 21.9 mph N/A   Clear
8:55 PM 19.4 °F 5.5 °F 14.0 °F 80% 30.23 in 10.0 mi WNW 15.0 mph 20.7 mph N/A   Clear
9:15 PM 19.4 °F 7.2 °F 13.5 °F 78% 30.24 in 10.0 mi WNW 11.5 mph 19.6 mph N/A   Clear
9:35 PM 19.0 °F 6.8 °F 13.1 °F 78% 30.25 in 10.0 mi WNW 11.5 mph - N/A   Clear
9:55 PM 19.0 °F 5.0 °F 12.9 °F 77% 30.25 in 10.0 mi WNW 15.0 mph - N/A   Clear
10:15 PM 18.5 °F 3.8 °F 12.2 °F 76% 30.26 in 10.0 mi WNW 16.1 mph - N/A   Clear
10:35 PM 18.3 °F 5.9 °F 12.0 °F 76% 30.27 in 10.0 mi WNW 11.5 mph - N/A   Clear
10:55 PM 17.6 °F 7.3 °F 11.7 °F 78% 30.28 in 10.0 mi WNW 8.1 mph - N/A   Clear
11:15 PM 17.6 °F 7.3 °F 11.3 °F 76% 30.29 in 10.0 mi WNW 8.1 mph - N/A   Clear
11:35 PM 17.1 °F 6.6 °F 11.1 °F 77% 30.28 in 10.0 mi NW 8.1 mph - N/A   Clear
11:55 PM 17.1 °F 6.6 °F 11.1 °F 77% 30.30 in 10.0 mi WNW 8.1 mph - N/A   Clear